Location: Częstochowa
(50.8000°N, 19.1167°E)
Time: 01:38:35
(UTC+01:00)

ISS - Visible Passes

Search period start: 23 January 2019 00:00
Search period end: 02 February 2019 00:00
Orbit: 404 x 411 km, 51.6° (Epoch: 23 January)

Date Brightness Start Highest point End Pass type
(mag) Time Alt. Az. Time Alt. Az. Time Alt. Az.
23 Jan -1.6 18:39:47 10° SSW 18:41:04 18° S 18:41:04 18° S visible
24 Jan -1.9 17:49:10 10° S 17:51:27 18° SE 17:52:03 17° SE visible
24 Jan -0.7 19:24:16 10° WSW 19:24:46 14° WSW 19:24:46 14° WSW visible
25 Jan -1.4 16:59:19 10° SSE 17:00:20 11° SE 17:01:23 10° ESE visible
25 Jan -2.9 18:33:04 10° SW 18:35:40 41° S 18:35:40 41° S visible
26 Jan -2.7 17:42:00 10° SSW 17:44:59 31° SSE 17:46:30 21° ESE visible
26 Jan -1.2 19:18:01 10° WSW 19:19:13 21° WSW 19:19:13 21° WSW visible
27 Jan -3.9 18:26:38 10° WSW 18:29:56 74° SSE 18:30:00 74° SSE visible
28 Jan -3.5 17:35:20 10° SW 17:38:34 54° SSE 17:40:44 19° E visible
28 Jan -1.6 19:11:47 10° W 19:13:26 27° W 19:13:26 27° W visible
29 Jan -3.9 18:20:20 10° W 18:23:39 83° N 18:24:08 62° ENE visible
30 Jan -3.8 17:28:54 10° WSW 17:32:13 83° SSE 17:34:49 16° ENE visible
30 Jan -2.1 19:05:31 10° W 19:07:31 34° WNW 19:07:31 34° WNW visible
31 Jan -3.8 18:14:03 10° W 18:17:21 74° N 18:18:11 46° ENE visible
31 Jan -0.3 19:50:38 10° WNW 19:50:54 12° WNW 19:50:54 12° WNW visible
01 Feb -3.8 17:22:33 10° W 17:25:52 78° N 17:28:51 12° E visible
01 Feb -2.7 18:59:10 10° WNW 19:01:34 44° W 19:01:34 44° W visible
